CZ-6A DEB, 56600

Orbit data source: Space-Track

CZ-6A DEB, 56600 is space debris in SSO originally from a launch on Fri, 11 Nov 2022 UTC launched from the Taiyaun Space Center, China (TSC). Debris objects in space refer to the collection of defunct objects orbiting the Earth. Examples of debris include non-operational satellites, rocket bodies, and fragments generated from explosions, collisions, or faulty payload assembly.

Loading next visibility...
Identifier
56600, 2022-151ADY
Orbit
SSO
Country
Flag of CNCN / PRC
Related business
Manufacturer
SAST
Mission
Spacecraft
Bus & Motor
Unknown
Mass
Unknown
Launch date (UTC)
2022-11-11 (3 years ago)
Launch vehicle
Unknown
Launch site
Taiyaun Space Center, China (TSC)
Object type
Payload
Rocket body
Debris
Shape & HBR
Unknown shape, 0.1 m
Radar Cross Section
Small (<0.1 m²)

Expand to show TLE details & history
Last TLE update: 2 days ago

TLE from 2 days ago
0 CZ-6A DEB
1 56600U 22151ADY 25348.12751958  .00032077  00000-0  38438-2 0  9995
2 56600  98.6269  43.8426 0053506 121.7872 238.8567 14.82965649148975
Epoch: 2025-12-14T03:03Z
TLE epoch observation values (Epoch: 2025-12-14T03:03:37.691Z)
Latitude
-0.00003°
Longitude
-85.10934°
Altitude
642.497 km
Speed
7.526 km/s
True Right ascension
02h 55m 22s
True Declination
0° 00' 00"
Sunlit
Object was in full shadow at epoch
Visualization orbit readout
Latitude
Unknown
Longitude
Unknown
Altitude
Unknown
Speed
Unknown
Apparent Right ascension
Unknown
Apparent Declination
Unknown
Sunlit
N/A
Visualization observer readout
Local Sidereal Time
15:06:12
Azimuth
Unknown
Elevation
Unknown
Doppler factor
Unknown
Orbital elements
Apogee altitude
654.478 km
Perigee altitude
579.621 km
Semi-major axis
6,995.186 km
Eccentricity
0.00535
Inclination
98.6269°
RAAN
43.8426°
Arg. of periapsis
121.7872°
True anomaly
238.33375°
Mean anomaly
238.8567°
Eccentric anomaly
238.59504°
Mean motion
3.70975 °/min
Orbital period
97.04 mins
BSTAR
0.0038438
Loading maneuver chart data...
Computing Atmospheric mass density...
Loading historical data...
Loading historical data...
Loading historical data...
Loading historical data...
Loading historical data...
Loading historical data...
Loading historical data...

Documentation

Showing up to 5 results
|